Location: Newark
(48.6461°N, 4.3644°W)
Time: 04:03:49
(UTC+00:00)

Transit 4A - Pass Details

Date: 28 January 2020
Orbit: 872 x 973 km, 66.8° (Epoch: 17 February)

Event Time Altitude Azimuth Distance (km) Brightness Sun altitude
Rises 10:07:41 0° 298° (WNW) 3,500 10.4 15.9°
Reaches altitude 10° 10:11:45 10° 325° (NW) 2,545 9.6 16.3°
Maximum altitude 10:14:28 13° 353° (N) 2,312 9.5 16.6°
Drops below altitude 10° 10:17:11 10° 21° (NNE) 2,534 9.9 16.8°
Sets 10:21:13 0° 48° (NE) 3,470 10.8 17.2°
